Lid_Strength_Index
-0 0 0 1 1 1 1 1 1 0 0 0 -0 -0 0 1 1 3 6 4 2 -1 0 4 4 4 4 4 4 5 8 9 9 10 9 7 8 6 6 7 6 6 6 5 4
-0 1 1 1 1 1 1 1 1 0 0 -0 -0 -0 0 1 4 6 3 -1 -1 -1 5 6 6 5 5 6 5 6 8 9 8 8 8 7 8 7 8 7 7 7 5 5 5
0 1 1 2 2 1 1 1 1 0 0 0 0 -0 1 1 5 6 1 0 -0 2 5 5 5 5 6 6 6 7 9 8 8 8 7 8 8 7 8 8 8 8 7 6 7
1 2 2 2 2 2 1 1 1 0 0 0 -0 -0 1 3 9 5 2 1 1 4 5 5 5 6 7 7 7 9 8 8 8 8 8 9 8 8 8 8 7 7 6 7 8
1 2 2 2 3 2 2 1 1 0 0 -0 -0 -0 2 5 6 5 1 2 4 5 6 6 7 7 8 8 7 8 8 9 8 9 9 9 9 9 8 7 7 6 8 8 8
2 2 3 3 3 2 2 1 1 1 0 -0 -1 1 4 7 5 5 4 5 5 5 6 6 7 7 7 8 9 8 9 9 9 9 9 10 9 9 8 7 8 8 9 9 9
2 3 3 3 3 3 2 1 1 1 0 -0 0 3 4 6 5 2 5 6 6 6 6 6 7 7 7 8 8 9 10 9 9 9 10 9 10 10 8 8 9 8 9 9 9
3 3 3 3 3 3 2 1 1 1 0 0 1 3 6 4 3 3 4 5 5 6 6 7 7 7 8 8 9 10 10 11 9 10 10 10 13 9 8 9 9 9 10 10 10
3 3 3 3 3 3 2 2 1 1 1 1 2 3 7 4 4 4 4 7 6 6 7 7 7 8 8 10 10 10 12 12 11 10 10 11 12 9 8 9 10 10 11 11 10
3 3 4 4 3 2 2 2 1 2 3 4 4 5 5 6 5 5 5 7 7 6 7 7 7 9 9 11 15 14 14 12 12 11 11 11 12 10 9 10 11 12 12 12 12
3 3 4 4 3 2 2 3 4 4 5 6 6 6 6 4 5 6 6 7 7 7 9 8 11 12 11 12 12 12 13 13 12 11 12 13 12 11 11 11 12 13 13 13 13
3 4 4 4 3 2 3 6 6 6 8 6 6 5 5 5 8 7 6 8 9 10 8 9 11 10 11 11 12 12 13 14 12 11 12 13 14 12 12 13 13 13 13 13 13
3 4 4 3 3 3 5 6 4 4 8 7 6 6 6 6 8 8 7 8 9 10 9 12 10 11 12 12 13 13 14 14 15 13 12 13 15 14 14 14 14 13 13 13 13
3 4 4 4 5 4 6 5 4 4 9 9 8 6 7 8 9 7 8 9 9 11 11 12 11 12 12 13 13 15 14 14 15 16 18 14 19 14 15 15 15 14 14 14 13
4 4 5 4 6 6 5 4 4 6 15 9 8 6 7 9 9 8 8 9 11 10 12 12 13 14 14 14 13 14 15 15 15 16 16 16 18 15 13 15 16 15 14 14 13
4 4 5 5 5 4 4 5 6 9 15 10 8 8 9 9 9 8 9 8 9 12 12 13 11 12 12 12 13 14 15 15 15 16 20 17 18 17 15 17 16 15 15 14 13
4 5 5 5 7 4 4 6 9 13 8 10 10 9 10 9 9 10 11 11 12 14 13 13 13 12 13 14 13 14 16 20 19 19 19 17 19 17 17 17 16 16 15 14 13
4 5 5 5 4 4 4 8 14 10 9 9 10 10 11 10 9 12 12 12 12 13 15 16 16 14 13 14 16 17 17 20 24 21 20 18 22 18 16 15 15 15 14 14 13
5 4 5 4 4 4 9 11 11 9 8 10 10 11 10 11 12 12 12 12 12 12 15 16 17 15 16 15 15 16 19 17 20 20 24 20 18 17 16 16 15 15 15 14 14
4 6 4 4 3 5 11 11 9 8 9 9 11 9 11 10 12 12 12 11 13 13 12 14 18 15 18 16 17 18 16 21 21 25 25 20 20 19 18 17 16 16 15 15 13
6 8 5 3 4 9 13 11 9 7 8 9 9 10 10 10 10 11 11 12 12 14 14 15 17 18 18 19 18 20 20 20 20 21 24 24 21 17 17 16 17 16 15 14 13
7 9 5 3 10 10 12 9 9 10 9 9 10 9 9 9 10 12 11 11 12 14 17 16 17 20 19 18 18 19 19 19 23 23 22 22 23 15 15 15 16 15 15 13 12
10 9 5 5 12 11 10 11 10 10 10 10 11 10 9 11 13 11 11 15 13 15 17 18 20 22 21 21 20 21 20 19 19 21 23 24 22 15 15 15 15 15 14 13 13
9 11 9 8 8 9 10 10 11 9 10 9 9 9 11 13 11 12 14 17 15 15 17 16 19 20 20 18 20 22 21 20 20 23 22 22 20 17 15 16 15 15 14 13 13
8 11 9 11 11 10 9 9 10 10 9 9 11 11 12 14 12 15 14 18 17 17 18 18 21 20 19 19 20 20 21 20 22 20 22 20 20 17 16 16 16 14 14 14 13
7 9 10 10 7 10 10 10 10 10 8 11 12 10 12 13 13 13 16 18 19 18 18 18 21 21 23 21 20 22 20 20 20 20 20 19 20 15 14 15 15 14 14 14 13
4 8 8 8 9 10 11 10 10 8 9 8 9 11 12 13 14 15 15 16 16 18 19 20 20 23 24 22 23 24 21 20 19 18 19 21 18 15 16 16 15 15 14 14 14